Weather in Otyassy

Russia / Tambov Oblast     53°14′33″N   41°39′21″E
temp.,
°C
wind,
m/s
gust,
m/s
humid.,
%
clouds,
%
prec.,
mm/h
press.,
hPa
HPBL,
m
7 march, sun
sun700:00−12wnw37920 0.0 1016144
03:00−13w37930 0.0 1016180
06:00−13sw379638 0.0 1015154
09:00−8sw5128461 0.0 1013486
12:00−5sw81477100 0.0 1009967
15:00−3sw91776100 0.2 10041257
18:00−3sw91891100 0.8 10011347
21:00−2sw91792100 2.1 9971194
8 march, mon
mon800:00−2wnw71385100 1.1 996997
03:00−6w6148469 1.1 1000578
06:00−8wsw412870 0.0 1001378
09:00−6wsw5118220 0.0 1002499
12:00−3wsw6108097 0.1 10021308
15:00−3w6107489 0.3 10021308
18:00−6w41183100 0.1 1003659
21:00−9wnw398866 0.1 1007247
9 march, tue
tue900:00−13wnw25940 0.0 100895
03:00−14wnw23950 0.0 101043
06:00−15wnw239646 0.0 101256
09:00−13nw359069 0.1 1013247
12:00−10nw358492 0.0 1014412
15:00−9nw468496 0.0 1014585
18:00−12wnw389199 0.0 1015336
21:00−15nw499492 0.1 1018246
10 march, wed
wed1000:00−16nnw369699 0.1 1019238
03:00−19nw369474 0.1 1021197
06:00−22nw379626 0.0 1022211
09:00−20nnw479153 0.0 1024282
12:00−17nw468445 0.0 1025450
15:00−16nw468349 0.0 1026508
18:00−19nw369270 0.0 1026165
21:00−21nw239636 0.0 102974
11 march, thu
thu1100:00−22nw22970 0.0 102949
03:00−22wnw22940 0.0 103044
06:00−23wnw22920 0.0 103135
09:00−18w23790 0.0 1031194
12:00−12w23660 0.0 1031371
15:00−10sw34680 0.0 1030444
18:00−14sw35850 0.0 1030118
21:00−16ssw37861 0.0 1030156